TIME,DELAY(SENSOR),PRES,OXYGEN,RAWTEMP,T(OPTODE),TCPHASE,FLUOR,BETA(BETA700),BETA(BETA412),BETA(BETA440),CDOM,C(CSC),ED(ED412.20),ED(ED444.00),ED(ED489.60),ED(ED554.30),LU(LU412.10),LU(LU443.90),LU(LU489.70),LU(LU554.70),COMP,TILTX,TILTY,CHECK
1359429109,5811,901.1500244140625000,34.6981697082519500,560.9390869140625000,4.4567890167236330,56.3381309509277340,54,100,101,78,81,15540,0,0,0,0,2147124836,2147769536,2147571547,2147568768,2435,3,13,63584
1359432705,5808,948.4699707031250000,38.6758193969726560,566.7310791015625000,4.2771000862121580,55.7789497375488300,55,99,100,77,82,15538,0,0,0,0,2147123995,2147777910,2147568228,2147565714,280,2,13,25105
1359436305,5808,954.8499755859375000,40.1371498107910160,567.7274169921875000,4.2461609840393070,55.5712089538574200,55,99,100,79,82,15542,0,0,0,0,2147124196,2147775451,2147573732,2147569289,507,2,13,11590
1359439905,5811,992.4099731445312000,41.8325386047363300,571.0136718750000000,4.1440558433532715,55.3534889221191400,55,99,101,78,81,15538,0,0,0,0,2147122962,2147771894,2147574628,2147568027,3571,2,13,20861
1359443505,5810,992.5499877929688000,42.3581008911132800,571.3032226562500000,4.1350569725036620,55.2835311889648440,55,97,100,78,81,15535,0,0,0,0,2147122916,2147772489,2147571620,2147565714,177,3,13,51658
1359447105,5811,995.0999755859375000,42.3876419067382800,571.4088134765625000,4.1317749023437500,55.2796287536621100,55,98,100,79,82,15537,0,0,0,0,2147121700,2147773869,2147569600,2147568329,3327,2,13,62846
1359450705,5812,1000.1900024414062000,41.7042312622070300,570.9349975585938000,4.1465020179748535,55.3757591247558600,54,97,100,79,82,15538,0,0,0,0,2147123638,2147778980,2147570633,2147563638,207,2,13,56094
1359454305,5811,991.4600219726562000,42.1484718322753900,572.0540771484375000,4.1117100715637210,55.3198585510253900,54,99,101,78,81,15536,0,0,0,0,2147122477,2147774308,2147574930,2147568018,340,3,13,42925
1359457905,5812,995.5700073242188000,42.2934188842773440,572.2963256835938000,4.1041808128356930,55.3036689758300800,54,110,99,78,82,15512,0,0,0,0,2147122276,2147776009,2147571218,2147568621,69,2,13,17298
1359461505,5809,998.5599975585938000,42.1213607788085940,572.0059204101562000,4.1132087707519530,55.3223304748535160,55,98,100,78,82,15535,0,0,0,0,2147125211,2147776566,2147573229,2147567204,3584,3,13,12990
1359465105,5809,997.9000244140625000,42.1799583435058600,572.2318115234375000,4.1061878204345700,55.3203582763671900,55,97,99,77,82,15538,0,0,0,0,2147120914,2147774802,2147573028,2147567552,3452,2,13,2087
1359468705,5808,999.8599853515625000,42.0950698852539060,572.0230712890625000,4.1126751899719240,55.3279190063476560,56,99,100,77,82,15534,0,0,0,0,2147126939,2147776064,2147574107,2147569115,55,3,13,65225
1359472305,5810,992.9799804687500000,42.0764503479003900,572.1594848632812000,4.1084308624267580,55.3302497863769500,55,97,101,78,81,15535,0,0,0,0,2147122907,2147775131,2147573869,2147568173,177,3,13,58182
1359475905,5812,993.5200195312500000,42.6442604064941400,573.0828857421875000,4.0797162055969240,55.2579383850097660,55,97,99,79,82,15535,0,0,0,0,2147124873,2147777819,2147573284,2147566573,3554,3,13,6130
1359479505,5809,993.3400268554688000,42.5574493408203100,572.7947998046875000,4.0886778831481930,55.2709999084472660,55,99,99,77,82,15536,0,0,0,0,2147123776,2147775378,2147575076,2147567899,353,2,13,46274
1359483105,5810,997.7899780273438000,42.6285400390625000,572.6367797851562000,4.0935897827148440,55.2599601745605500,54,101,99,78,82,15533,0,0,0,0,2147123986,2147776274,2147574061,2147565613,53,2,13,12376
1359486705,5809,999.0800170898438000,42.0955505371093750,572.2758178710938000,4.1048159599304200,55.3342208862304700,55,99,100,79,81,15535,0,0,0,0,2147122660,2147772772,2147572169,2147566317,28,3,13,16848
1359490305,5811,1002.6099853515625000,41.9603118896484400,572.0681762695312000,4.1112728118896480,55.3464889526367200,56,98,100,79,82,15534,0,0,0,0,2147122560,2147775680,2147576713,2147568036,22,3,13,62889
1359493905,5808,1001.5499877929688000,42.5995101928710940,573.0698852539062000,4.0801219940185550,55.2626190185546900,55,98,101,78,81,15532,0,0,0,0,2147122697,2147773595,2147570825,2147568969,3566,3,13,3178
1359497505,5810,993.4299926757812000,42.7397499084472660,573.4415283203125000,4.0685629844665530,55.2520713806152340,55,99,100,79,82,15533,0,0,0,0,2147126034,2147778294,2147571840,2147568009,60,3,13,57668
1359501105,5810,993.6099853515625000,43.1714515686035160,573.5742797851562000,4.0644340515136720,55.1891517639160160,55,97,100,77,82,15537,0,0,0,0,2147126409,2147773348,2147574582,2147565412,2954,3,13,31439
1359504705,5808,999.5200195312500000,42.9367904663085940,573.1232299804688000,4.0784649848937990,55.2147598266601560,56,98,102,78,82,15533,0,0,0,0,2147125366,2147771812,2147575040,2147566811,3319,2,13,22650
1359508305,5809,996.7199707031250000,42.4677810668945300,573.1185302734375000,4.0786089897155760,55.2887001037597660,54,97,100,78,82,15535,0,0,0,0,2147124589,2147773458,2147576054,2147567616,3494,2,13,52244
1359511905,5809,1009.7800292968750000,42.1198005676269500,572.1271972656250000,4.1094379425048830,55.3286781311035160,55,101,100,78,82,15535,0,0,0,0,2147121746,2147773065,2147574976,2147568877,337,2,13,40797
1359515505,5808,1004.2600097656250000,41.3203086853027340,571.8192138671875000,4.1190171241760250,55.4429702758789060,54,98,100,78,83,15534,0,0,0,0,2147122596,2147772873,2147577078,2147568978,412,2,13,60360
1359519105,5810,1010.6799926757812000,41.2697486877441400,571.8690185546875000,4.1174659729003910,55.4481887817382800,54,98,99,78,81,15530,0,0,0,0,2147126528,2147772973,2147574464,2147566939,282,2,13,8939
1359522705,5808,1014.7800292968750000,41.3333396911621100,571.9898071289062000,4.1137099266052250,55.4382095336914060,54,100,100,78,81,15529,0,0,0,0,2147124882,2147777645,2147574226,2147566500,190,3,13,35256
1359526305,5810,1008.9299926757812000,41.1526794433593750,571.8745117187500000,4.1172962188720700,55.4631309509277340,54,100,99,77,81,15526,0,0,0,0,2147124626,2147779364,2147570916,2147570386,496,2,13,20167
1359529905,5809,1003.3900146484375000,41.1122589111328100,572.1077880859375000,4.1100411415100100,55.4702491760253900,55,100,99,78,82,15529,0,0,0,0,2147122660,2147778002,2147572434,2147567497,381,2,13,33241
1359533505,5808,1004.3800048828125000,41.6178894042968750,572.3547973632812000,4.1023621559143070,55.4006309509277340,54,99,100,79,81,15529,0,0,0,0,2147121398,2147777453,2147573248,2147566674,800,3,13,41091
1359537105,5810,1009.6900024414062000,41.4510116577148440,572.0587768554688000,4.1115632057189940,55.4194412231445300,55,97,100,78,81,15523,0,0,0,0,2147126976,2147776548,2147576310,2147566765,170,3,13,37430
1359540705,5810,1008.6099853515625000,41.9192085266113300,572.4398193359375000,4.0997161865234375,55.3566703796386700,54,98,99,76,82,15527,0,0,0,0,2147122395,2147774555,2147575414,2147570962,92,3,13,25326
1359544305,5808,1009.4099731445312000,41.7814598083496100,572.5375976562500000,4.0966758728027340,55.3776512145996100,55,100,100,78,82,15529,0,0,0,0,2147123638,2147775067,2147572717,2147567734,298,2,13,7505
1359547905,5810,1006.6699829101562000,41.7616615295410160,572.4345092773438000,4.0998821258544920,55.3835792541503900,55,100,100,78,82,15529,0,0,0,0,2147122989,2147776384,2147575606,2147568164,363,2,13,65401
1359551505,5810,1014.0800170898438000,41.7268104553222660,572.0032958984375000,4.1132907867431640,55.3810386657714840,55,98,100,78,83,15527,0,0,0,0,2147123465,2147781046,2147570523,2147570112,3221,2,13,48599
1359555105,5809,1011.3400268554688000,41.9708290100097660,572.0358276367188000,4.1122798919677730,55.3455581665039060,55,97,100,79,82,15528,0,0,0,0,2147124617,2147780196,2147573421,2147566454,3177,2,13,5542
1359558705,5809,1007.8400268554688000,41.7296714782714840,572.1027832031250000,4.1101970672607420,55.3802299499511700,55,98,101,78,82,15529,0,0,0,0,2147122953,2147775552,2147571492,2147566738,2695,2,13,53451
1359562305,5809,1004.5700073242188000,41.5555305480957000,572.5078735351562000,4.0976009368896480,55.4107818603515600,55,98,100,78,81,15528,0,0,0,0,2147123904,2147769014,2147575049,2147567606,126,3,13,4765
1359565905,5810,1011.8200073242188000,42.6707611083984400,572.9697875976562000,4.0832347869873050,55.2530593872070300,55,101,101,78,81,15528,0,0,0,0,2147124233,2147775350,2147572233,2147565952,260,3,13,44106
1359569505,5809,1004.3499755859375000,42.7580604553222660,573.2285156250000000,4.0751900672912600,55.2427482604980500,54,98,99,77,81,15525,0,0,0,0,2147123648,2147775862,2147570102,2147568502,321,2,13,25910
1359573105,5810,1006.9299926757812000,42.6060905456543000,573.0117797851562000,4.0819277763366700,55.2602615356445300,55,98,100,78,82,15528,0,0,0,0,2147124333,2147774345,2147571090,2147566710,3597,2,13,3217
1359573356,5808,1007.2600097656250000,42.6637001037597660,572.9586791992188000,4.0835800170898440,55.2580604553222660,55,97,101,77,82,15528,0,0,0,0,2147120740,2147768320,2147572013,2147568420,46,2,13,55542
